Home > Weather > Kalisz > Past weeks

Flag for Poland Past Weather in Kalisz, Poland — Yesterday and Last 2 Weeks

Now
69 °F

Light rain. Overcast.


Feels Like: 69 °F
Forecast: 62 / 79 °F
Wind: 2 mph from Southwest

Location: Kalisz

Current Time: Jul 29, 2016 at 2:12:44 PM

Latest Report: Jul 29, 2016 at 1:00 PM


Visibility: 9 mi

Pressure: 29.89 "Hg

Humidity: 89%

Dew Point: 65 °F

Location of KaliszLocation

Past Weather in Kalisz — Graph

°F

Kalisz Temperature Yesterday

Maximum temperature yesterday: 78 °F (at 3:00 PM)
Minimum temperature yesterday: 64 °F (at 4:00 AM)
Average temperature yesterday: 70 °F

High & Low Weather Summary for the Past Weeks

 TemperatureHumidityPressure
High85 °F (Jul 26, 5:00 PM)100% (Jul 14, 1:00 PM)30.23 "Hg (Jul 14, 1:00 PM)
Low52 °F (Jul 14, 11:00 PM)32% (Jul 22, 4:00 PM)29.50 "Hg (Jul 14, 3:00 PM)
Average66 °F76%30.04 "Hg
* Reported Jul 14 12:00 PM — Jul 29 12:00 PM, Kalisz, Weather by CustomWeather, © 2016

Note: Actual official high and low records may vary slightly from our data, if they occured in-between our weather recording intervals... More about our weather records

Advertising

Kalisz Weather History for the Previous 24 Hours

Scroll right to see more
 ConditionsComfort  
Time TempWeatherWind HumidityBarometerVisibility
12:00 PM
Fri, Jul 29
67 °FThunderstorms. Overcast.5 mph86%29.92 "Hg9 mi
11:00 AM78 °FOvercast.3 mph53%29.88 "Hg12 mi
10:00 AM75 °FOvercast.3 mph60%29.90 "Hg12 mi
9:00 AM73 °FOvercast.2 mph66%29.91 "Hg12 mi
8:00 AM69 °FScattered clouds.2 mph76%29.92 "Hg9 mi
7:00 AM67 °FFog.1 mph84%29.93 "Hg6 mi
6:00 AM63 °FFog.1 mph92%29.93 "Hg5 mi
5:00 AM63 °FFog.1 mph92%29.94 "Hg5 mi
2:00 AM67 °FPassing clouds.1 mph75%29.94 "Hg7 mi
1:00 AM68 °FOvercast.1 mph76%29.95 "Hg7 mi
11:00 PM
Thu, Jul 28
70 °FOvercast.1 mph68%29.96 "Hg14 mi
8:00 PM75 °FOvercast.3 mph58%29.95 "Hg19 mi
6:00 PM77 °FOvercast.2 mph56%29.95 "Hg16 mi
5:00 PM78 °FOvercast.3 mph52%29.96 "Hg19 mi
3:00 PM78 °FOvercast.3 mph53%29.97 "Hg19 mi
2:00 PM77 °FOvercast.5 mph57%29.98 "Hg17 mi
Weather by CustomWeather, © 2016

See weather overviewHow to use our weather pages